Torna al catalogo

STARLINK-32447

AttivoComunicazioniVLEO
NORAD 61261·PAYLOAD·🇺🇸 United States

Lanciato Sep 25, 2024 da Vandenberg Space Force Base

Loading…

Prossimi Passaggi (prossime 24 ore)

TLE

AggiornatoSource: CelesTrak SupGP

Epoca: Sep 15, 2026, 03:06 UTC

1 61261C 24175U   26258.12965278  .00017859  00000+0  52787-3 0  2587
2 61261  53.1590  30.9504 0001241  91.2912 218.2784 15.34368868    19

Traccia STARLINK-32447 in tempo reale con AllMySat

Download on the App Store